Showing default

MOZHAYETS 4, 27939

Orbit data source: Space-Track

MOZHAYETS 4, 27939 is a payload satellite owned by Mozhaiskiy (CIS) in SSO that was launched on Sat, 27 Sep 2003 UTC via a KOSMOS 11K65M launch vehicle from the Plesetsk Missile And Space Complex (PKMTR). Payload-class satellites include a variety of spacecraft equipped with specific instruments for various scientific and technological missions. These include communications satellites like Starlink; space stations such as the ISS; scientific satellites like the Hubble; Earth observation satellites from companies like Planet Labs, Umbra, and HawkEye 360; GPS; miniature CubeSats for education and research; and military/defense satellites.

Loading next visibility...
Identifier
27939, 2003-042A
Orbit
SSO
Country
Flag of CISCIS
Related business
Manufacturer
NPO PM
Mission
Operational Civil Technology
Bus & Motor
STRELA-1M, Unknown motor
Mass
64 kg wet, 64 kg dry
Launch date (UTC)
2003-09-27 (23 years ago)
Launch vehicle
KOSMOS 11K65M
Launch site
Plesetsk Missile And Space Complex (PKMTR)
Object type
Payload
Rocket body
Debris
Shape & HBR
Poly, 0.5 m
Radar Cross Section
1.143 m², Medium (>0.1 m² and < 1m²)

Expand to show TLE details & history
Last TLE update: 10 hours ago

TLE from 10 hours ago
0 MOZHAYETS 4
1 27939U 03042A   26121.56405872  .00001195  00000-0  19257-3 0  9991
2 27939  98.3463 304.6092 0012413  59.8169  32.8140 14.73383753208684
Epoch: 2026-05-01T13:32Z
TLE epoch observation values (Epoch: 2026-05-01T13:32:14.673Z)
Latitude
81.27399°
Longitude
133.98423°
Altitude
656.394 km
Speed
7.54 km/s
True Right ascension
13h 06m 09s
True Declination
81° 13' 17"
Sunlit
Object was in daylight at epoch
Visualization orbit readout
Latitude
Unknown
Longitude
Unknown
Altitude
Unknown
Speed
Unknown
Apparent Right ascension
Unknown
Apparent Declination
Unknown
Sunlit
N/A
Visualization observer readout
Local Sidereal Time
06:54:18
Azimuth
Unknown
Elevation
Unknown
Doppler factor
Unknown
Orbital elements
Apogee altitude
656.077 km
Perigee altitude
638.636 km
Semi-major axis
7,025.494 km
Eccentricity
0.00124
Inclination
98.3463°
RAAN
304.6092°
Arg. of periapsis
59.8169°
True anomaly
32.89118°
Mean anomaly
32.814°
Eccentric anomaly
32.85258°
Mean motion
3.68577 °/min
Orbital period
97.67 mins
BSTAR
0.00019257
Loading maneuver chart data...
Computing Atmospheric mass density...
Loading historical data...
Loading historical data...
Loading historical data...
Loading historical data...
Loading historical data...
Loading historical data...
Loading historical data...
Other satellites on launch #42 in the year 2003 (2003-09-27 UTC)

Documentation

Showing up to 5 results
|